Temp
-9 -9 -9 -9 -9 -8 -8 -8 -8 -8 -8 -8 -7 -7 -7 -7 -6 -6 -5 -5 -5 -5 -5 -5 -5 -6 -6 -6 -6 -6 -6 -6 -6 -8 -7 -6 -6 -6 -6 -6 -5 -5 -5
-8 -9 -9 -9 -9 -9 -8 -8 -8 -8 -8 -8 -8 -7 -7 -7 -7 -7 -7 -6 -6 -6 -6 -5 -6 -6 -6 -6 -6 -6 -6 -6 -6 -6 -7 -7 -6 -6 -6 -6 -6 -6 -5
-9 -9 -9 -9 -8 -8 -8 -8 -7 -8 -8 -8 -8 -8 -8 -7 -6 -6 -7 -7 -6 -6 -6 -6 -6 -6 -6 -6 -6 -6 -6 -6 -6 -6 -7 -7 -6 -6 -5 -6 -6 -6 -6
-10 -10 -10 -10 -9 -8 -8 -8 -7 -7 -8 -8 -8 -8 -8 -7 -7 -7 -6 -6 -7 -7 -6 -6 -6 -6 -6 -6 -6 -6 -6 -6 -6 -6 -6 -6 -6 -6 -6 -6 -6 -6 -6
-11 -11 -11 -11 -10 -10 -9 -9 -8 -8 -8 -8 -8 -8 -7 -8 -7 -7 -8 -7 -6 -6 -7 -7 -7 -6 -6 -6 -6 -6 -5 -5 -5 -5 -5 -6 -6 -7 -6 -6 -6 -6 -7
-10 -10 -10 -10 -10 -10 -10 -10 -9 -9 -9 -8 -8 -8 -8 -7 -7 -8 -8 -8 -8 -7 -6 -6 -6 -6 -7 -7 -6 -6 -6 -5 -5 -5 -5 -5 -6 -7 -7 -6 -6 -6 -6
-10 -10 -10 -10 -10 -10 -10 -10 -10 -10 -10 -9 -8 -8 -8 -8 -7 -7 -7 -8 -8 -8 -7 -7 -5 -7 -7 -7 -7 -7 -6 -6 -6 -6 -6 -6 -6 -7 -7 -7 -6 -6 -6
-11 -11 -11 -10 -10 -9 -9 -9 -9 -9 -8 -9 -9 -8 -7 -8 -8 -8 -7 -7 -7 -7 -8 -8 -7 -7 -7 -6 -7 -7 -7 -6 -6 -6 -6 -6 -6 -6 -6 -6 -6 -6 -6
-12 -11 -11 -10 -10 -9 -9 -9 -9 -9 -9 -8 -8 -8 -8 -7 -8 -8 -8 -8 -8 -7 -7 -7 -8 -7 -7 -7 -7 -8 -7 -7 -7 -6 -6 -6 -6 -6 -6 -6 -6 -6 -6
-11 -11 -11 -11 -11 -11 -10 -10 -10 -10 -9 -9 -8 -8 -8 -8 -8 -8 -8 -8 -8 -8 -8 -8 -7 -7 -8 -7 -6 -7 -7 -7 -7 -6 -6 -6 -6 -6 -6 -6 -6 -6 -6
-11 -11 -11 -11 -11 -12 -11 -11 -10 -10 -10 -10 -9 -8 -8 -8 -9 -8 -8 -8 -8 -9 -9 -8 -8 -7 -7 -6 -6 -5 -5 -5 -5 -5 -6 -7 -7 -6 -6 -5 -6 -6 -6
-12 -12 -12 -12 -13 -12 -12 -11 -11 -11 -11 -11 -10 -9 -8 -8 -9 -9 -8 -8 -8 -8 -8 -8 -8 -7 -7 -7 -6 -6 -5 -4 -4 -4 -4 -4 -5 -6 -6 -4 -5 -5 -5
-14 -13 -13 -13 -13 -12 -12 -12 -12 -13 -12 -12 -12 -11 -9 -9 -9 -10 -9 -8 -8 -8 -9 -8 -8 -8 -7 -7 -7 -6 -6 -5 -5 -5 -6 -6 -6 -6 -6 -4 -4 -5 -5
-13 -13 -13 -13 -12 -13 -13 -13 -13 -13 -12 -13 -12 -12 -11 -10 -9 -10 -10 -9 -9 -9 -9 -9 -8 -8 -8 -8 -8 -8 -7 -7 -6 -6 -6 -6 -7 -7 -6 -6 -6 -6 -6
-13 -13 -14 -13 -13 -14 -15 -15 -15 -14 -13 -13 -13 -13 -12 -10 -10 -10 -10 -10 -10 -9 -9 -9 -9 -8 -8 -8 -8 -9 -8 -8 -8 -7 -7 -7 -7 -8 -7 -7 -7 -7 -7
-14 -13 -13 -13 -14 -15 -15 -16 -16 -15 -15 -14 -14 -13 -13 -12 -11 -11 -11 -10 -10 -10 -9 -9 -9 -9 -9 -9 -9 -9 -9 -9 -8 -8 -8 -7 -7 -7 -7 -7 -7 -7 -7
-15 -14 -14 -15 -15 -16 -16 -16 -17 -16 -16 -15 -15 -14 -13 -13 -12 -11 -11 -11 -10 -10 -10 -10 -10 -10 -9 -9 -10 -9 -9 -8 -8 -8 -8 -7 -7 -7 -8 -8 -8 -7 -7
-15 -14 -15 -16 -15 -16 -16 -16 -17 -16 -16 -16 -15 -15 -14 -13 -12 -12 -11 -11 -11 -12 -11 -11 -10 -10 -10 -10 -9 -10 -9 -9 -8 -8 -8 -8 -8 -8 -7 -8 -8 -8 -7
-15 -15 -15 -16 -15 -16 -16 -17 -17 -17 -16 -16 -15 -15 -14 -13 -12 -12 -12 -12 -11 -11 -11 -11 -10 -11 -10 -10 -9 -9 -10 -9 -9 -8 -8 -8 -8 -7 -7 -7 -7 -7 -7
-15 -16 -16 -15 -15 -15 -15 -16 -16 -16 -16 -15 -15 -13 -13 -12 -13 -13 -12 -12 -11 -11 -11 -11 -11 -11 -10 -10 -10 -10 -10 -10 -9 -9 -9 -9 -9 -9 -9 -9 -9 -9 -9
-16 -16 -16 -16 -15 -15 -14 -15 -15 -15 -14 -14 -12 -12 -11 -12 -12 -12 -12 -11 -11 -11 -11 -11 -11 -10 -10 -10 -10 -10 -10 -9 -10 -10 -10 -10 -10 -11 -11 -10 -10 -10 -10
-17 -16 -16 -15 -15 -15 -15 -14 -14 -13 -12 -13 -13 -13 -13 -13 -13 -13 -12 -11 -11 -11 -10 -11 -11 -11 -10 -10 -10 -10 -10 -11 -11 -11 -12 -11 -11 -11 -11 -11 -11 -11 -10
-17 -16 -17 -17 -17 -16 -15 -14 -14 -13 -13 -13 -13 -13 -13 -13 -13 -12 -12 -13 -12 -11 -12 -12 -13 -13 -12 -11 -12 -12 -12 -12 -12 -12 -12 -12 -12 -12 -12 -11 -11 -11 -11
-17 -16 -16 -16 -16 -15 -15 -15 -16 -16 -15 -15 -13 -13 -13 -13 -13 -13 -13 -13 -13 -13 -13 -13 -13 -13 -13 -12 -12 -12 -13 -13 -13 -13 -13 -13 -13 -12 -13 -13 -13 -14 -14
-17 -17 -17 -17 -17 -16 -16 -16 -16 -15 -15 -15 -15 -15 -14 -15 -14 -14 -14 -14 -13 -13 -13 -14 -14 -14 -14 -15 -15 -15 -15 -15 -15 -16 -16 -16 -17 -16 -15 -15 -15 -15 -14
-17 -17 -17 -17 -17 -17 -16 -16 -16 -16 -16 -16 -16 -16 -16 -16 -16 -16 -16 -16 -16 -16 -16 -16 -16 -16 -17 -17 -17 -17 -17 -16 -16 -16 -16 -16 -16 -16 -16 -16 -15 -15 -15
Height
5905 5905 5906 5906 5906 5905 5906 5905 5905 5906 5906 5906 5905 5905 5906 5908 5910 5912 5913 5914 5914 5913 5913 5912 5911 5912 5913 5913 5914 5915 5915 5915 5917 5913 5912 5910 5909 5908 5907 5907 5906 5904 5904
5899 5898 5899 5899 5899 5898 5898 5897 5896 5896 5896 5897 5896 5897 5898 5899 5900 5902 5904 5906 5906 5907 5906 5906 5907 5905 5904 5904 5904 5905 5906 5906 5908 5910 5907 5905 5905 5903 5902 5901 5900 5898 5897
5886 5888 5888 5888 5888 5888 5888 5888 5887 5885 5885 5884 5887 5887 5887 5889 5890 5892 5892 5894 5897 5899 5899 5899 5899 5897 5898 5898 5897 5895 5895 5896 5898 5901 5903 5901 5899 5897 5896 5896 5894 5893 5891
5873 5874 5875 5874 5875 5875 5875 5875 5875 5875 5875 5876 5875 5877 5879 5878 5880 5881 5883 5883 5884 5885 5886 5886 5886 5886 5888 5888 5887 5887 5887 5887 5887 5890 5893 5894 5893 5891 5890 5889 5888 5886 5886
5856 5857 5859 5858 5857 5857 5858 5860 5861 5862 5862 5862 5863 5864 5864 5866 5869 5869 5869 5870 5871 5871 5872 5872 5872 5872 5872 5873 5873 5875 5875 5876 5878 5879 5882 5884 5885 5883 5881 5881 5881 5880 5878
5836 5836 5836 5838 5841 5841 5841 5841 5842 5844 5846 5847 5848 5850 5852 5853 5856 5855 5855 5856 5855 5854 5856 5858 5861 5859 5857 5860 5862 5865 5866 5866 5868 5869 5872 5873 5875 5874 5872 5871 5872 5872 5872
5817 5818 5818 5817 5818 5820 5821 5821 5821 5822 5824 5827 5831 5832 5835 5838 5839 5840 5841 5840 5837 5837 5836 5841 5838 5839 5842 5847 5847 5850 5854 5859 5861 5859 5862 5863 5862 5861 5861 5863 5861 5863 5863
5799 5796 5794 5793 5794 5795 5796 5799 5800 5800 5802 5806 5810 5813 5816 5822 5821 5822 5825 5822 5821 5825 5827 5829 5827 5800 5823 5834 5840 5842 5842 5846 5851 5850 5849 5853 5853 5852 5850 5851 5852 5852 5852
5776 5775 5773 5771 5771 5771 5772 5774 5775 5775 5781 5784 5787 5793 5797 5804 5805 5805 5807 5807 5808 5810 5811 5814 5815 5812 5816 5816 5824 5831 5828 5833 5838 5838 5836 5840 5840 5841 5841 5840 5842 5840 5842
5757 5754 5750 5746 5746 5747 5747 5748 5750 5750 5755 5759 5766 5770 5775 5782 5787 5789 5790 5791 5793 5798 5799 5801 5805 5805 5805 5808 5813 5815 5817 5824 5823 5823 5824 5827 5826 5827 5828 5828 5828 5828 5828
5733 5729 5726 5723 5717 5716 5718 5720 5720 5724 5729 5735 5740 5748 5752 5760 5765 5770 5774 5774 5779 5783 5788 5792 5793 5792 5795 5796 5797 5799 5805 5805 5806 5806 5811 5814 5813 5813 5812 5812 5812 5815 5816
5707 5704 5701 5700 5694 5688 5687 5691 5694 5694 5699 5707 5714 5723 5732 5738 5744 5750 5757 5759 5763 5767 5774 5778 5781 5783 5785 5785 5787 5787 5788 5788 5791 5793 5793 5797 5799 5797 5800 5800 5798 5802 5804
5685 5684 5681 5677 5671 5666 5663 5663 5664 5668 5674 5681 5686 5696 5709 5716 5723 5731 5738 5744 5749 5753 5759 5763 5766 5768 5770 5772 5774 5773 5775 5776 5778 5778 5779 5781 5782 5782 5783 5785 5785 5786 5786
5669 5666 5665 5658 5654 5647 5641 5638 5638 5642 5648 5654 5661 5671 5685 5694 5705 5713 5720 5727 5734 5740 5743 5748 5753 5755 5757 5758 5759 5762 5764 5765 5767 5768 5768 5766 5768 5769 5769 5769 5771 5774 5776
5654 5652 5651 5643 5636 5629 5621 5618 5618 5622 5625 5633 5643 5651 5662 5674 5686 5694 5703 5712 5720 5726 5730 5735 5739 5743 5745 5746 5748 5749 5752 5752 5755 5756 5756 5756 5756 5759 5759 5761 5762 5762 5763
5644 5643 5643 5634 5624 5615 5605 5602 5601 5604 5608 5617 5625 5634 5646 5657 5667 5678 5689 5699 5706 5711 5717 5721 5725 5728 5732 5735 5736 5738 5741 5742 5743 5744 5744 5743 5744 5745 5745 5746 5746 5746 5748
5638 5635 5633 5625 5616 5605 5595 5590 5590 5592 5598 5605 5614 5623 5633 5643 5652 5664 5674 5683 5690 5696 5702 5707 5712 5717 5719 5722 5723 5727 5729 5731 5732 5732 5731 5732 5733 5734 5735 5734 5734 5736 5738
5637 5634 5629 5619 5610 5603 5596 5590 5588 5590 5594 5600 5609 5617 5624 5633 5643 5654 5663 5670 5678 5684 5690 5695 5700 5703 5706 5709 5712 5712 5716 5717 5717 5716 5718 5718 5720 5720 5721 5721 5722 5724 5725
5637 5631 5626 5620 5609 5604 5599 5597 5595 5596 5598 5601 5606 5611 5617 5625 5635 5644 5653 5660 5668 5674 5680 5685 5688 5692 5694 5697 5697 5699 5702 5703 5704 5704 5705 5704 5704 5705 5706 5706 5706 5708 5710
5636 5629 5625 5619 5615 5608 5604 5603 5600 5597 5595 5601 5605 5607 5613 5618 5630 5640 5647 5655 5662 5667 5671 5674 5677 5680 5682 5684 5686 5687 5689 5690 5691 5691 5691 5691 5690 5691 5691 5692 5693 5695 5697
5637 5631 5624 5620 5616 5611 5607 5604 5601 5601 5601 5599 5604 5610 5604 5617 5624 5634 5638 5645 5650 5655 5658 5661 5664 5666 5670 5673 5673 5674 5674 5674 5675 5675 5677 5677 5678 5679 5679 5680 5682 5682 5686
5640 5634 5627 5621 5618 5615 5608 5604 5603 5606 5605 5611 5616 5616 5621 5622 5628 5633 5636 5639 5642 5643 5646 5649 5653 5655 5657 5658 5658 5658 5659 5660 5662 5664 5664 5665 5666 5667 5668 5668 5669 5668 5670
5643 5637 5633 5627 5621 5618 5614 5611 5609 5611 5611 5613 5616 5618 5620 5623 5625 5626 5632 5636 5639 5635 5638 5641 5644 5645 5645 5645 5645 5647 5647 5648 5649 5649 5650 5651 5652 5654 5655 5654 5654 5654 5654
5645 5640 5635 5633 5629 5626 5622 5621 5619 5617 5613 5613 5615 5617 5618 5620 5623 5622 5625 5627 5630 5634 5631 5628 5630 5632 5634 5633 5633 5634 5635 5636 5636 5635 5636 5637 5637 5637 5639 5640 5640 5641 5641
5650 5646 5641 5635 5632 5629 5627 5625 5624 5623 5623 5623 5622 5621 5621 5620 5620 5621 5622 5623 5624 5624 5622 5622 5621 5621 5621 5620 5619 5621 5622 5622 5623 5623 5624 5624 5624 5625 5625 5625 5625 5626 5628
5650 5647 5644 5640 5637 5633 5630 5628 5627 5626 5625 5623 5622 5620 5618 5617 5616 5617 5618 5618 5619 5619 5618 5617 5615 5614 5614 5612 5612 5612 5613 5613 5613 5612 5612 5613 5612 5612 5612 5612 5612 5612 5611
Wind_Speed
20 17 18 21 25 30 30 32 38 37 36 34 35 33 31 35 38 37 36 37 36 36 36 34 32 32 31 30 30 29 29 27 21 24 25 26 23 19 19 19 20 21 21
29 27 27 28 30 30 32 36 38 39 39 40 38 37 35 35 36 38 41 43 42 42 42 42 40 39 36 36 35 34 34 34 31 25 28 29 26 25 24 24 25 25 24
35 35 37 37 37 39 40 41 42 41 36 38 45 43 40 38 39 39 38 42 47 47 47 47 46 47 44 42 40 40 39 38 36 32 29 31 31 31 29 28 28 29 28
48 48 49 49 49 50 49 48 48 47 44 39 43 43 38 41 42 43 45 44 43 46 50 50 49 50 48 48 47 45 42 41 40 36 33 32 33 34 34 32 30 30 29
58 59 56 53 51 51 54 54 52 51 51 49 47 47 47 47 48 47 49 47 49 51 50 53 54 54 53 53 52 48 46 43 42 40 37 35 34 35 36 33 31 30 29
68 66 66 63 62 62 63 63 63 57 56 56 54 50 51 53 53 52 54 53 55 54 53 57 56 54 54 53 53 50 49 47 44 43 39 37 35 36 38 36 33 31 30
71 71 71 71 71 68 67 66 68 70 68 64 61 57 54 55 56 58 60 61 67 64 58 53 54 65 58 58 54 53 51 51 49 48 43 40 39 39 40 38 40 35 32
78 77 78 77 75 72 70 69 69 69 70 71 70 69 62 58 59 61 60 63 69 65 63 57 70 26 49 64 58 54 50 51 51 51 48 44 45 44 45 44 42 38 36
81 79 79 78 77 77 76 74 74 73 70 68 67 70 74 68 64 63 63 64 62 65 65 63 66 65 53 35 43 52 57 48 52 54 53 49 48 49 49 50 46 45 38
77 78 80 81 81 80 80 80 78 78 76 73 70 66 65 71 70 68 65 65 64 61 60 56 59 55 50 52 47 46 33 39 54 56 57 54 54 50 50 52 49 46 46
75 75 76 78 81 81 80 78 79 81 81 77 75 70 68 64 67 69 68 67 64 62 56 50 46 46 44 44 42 40 41 40 44 33 48 54 58 61 24 38 53 46 39
75 76 77 73 77 82 82 79 80 83 79 78 76 74 70 66 63 64 66 67 64 62 56 50 43 43 40 37 37 34 34 35 39 40 31 34 39 31 33 31 32 40 40
64 63 61 60 66 67 68 67 69 70 74 74 74 72 70 66 65 59 62 65 63 60 53 51 44 42 41 37 36 33 33 35 31 32 39 39 40 39 35 36 31 33 33
55 54 53 44 48 54 58 62 61 60 62 66 66 65 67 66 65 56 58 61 59 58 53 49 44 41 38 38 36 30 31 30 29 31 34 37 41 42 41 39 34 34 40
41 38 37 38 48 52 53 53 46 47 51 59 57 54 53 59 59 54 55 58 55 52 51 47 43 40 39 41 38 34 32 30 32 32 33 34 36 42 45 46 43 45 44
29 30 29 39 42 39 41 41 37 39 40 47 50 46 42 47 51 51 51 52 51 50 48 47 46 43 40 40 38 39 37 37 37 38 38 38 39 40 39 38 41 50 41
18 18 32 43 39 33 29 21 23 24 31 35 36 36 34 43 45 47 49 50 50 49 46 43 43 42 42 42 40 34 31 37 40 38 37 38 40 40 44 43 41 41 45
19 24 31 31 37 24 24 14 12 13 17 21 27 31 33 39 42 44 46 47 46 43 42 41 40 41 42 39 45 36 40 42 45 43 39 39 39 42 44 44 46 46 46
22 27 26 35 13 20 18 17 8 8 14 19 23 26 32 37 40 42 41 39 39 41 41 42 43 44 45 46 50 47 48 44 44 43 43 43 40 42 44 45 43 42 48
32 29 15 17 18 18 19 19 13 12 15 21 17 23 31 35 34 32 34 32 33 35 39 43 46 47 49 49 48 48 46 44 45 44 45 44 44 41 38 38 39 38 33
29 25 14 23 13 11 5 8 6 11 19 32 33 29 30 32 22 32 34 36 37 38 42 44 47 49 49 46 49 50 49 48 45 44 44 44 44 40 37 37 44 42 40
24 33 32 11 7 14 4 4 2 12 9 22 12 14 29 30 32 36 32 35 39 44 43 43 42 44 44 41 44 43 42 40 43 46 45 45 44 42 43 44 44 44 44
20 20 22 28 31 30 24 16 8 8 15 12 9 14 18 19 29 31 30 31 33 32 39 38 30 34 45 43 42 47 47 44 43 43 45 49 46 47 45 47 49 48 45
16 17 16 16 16 17 20 19 18 20 15 12 5 19 18 15 20 22 22 26 33 46 56 46 44 43 53 51 50 55 52 51 54 54 52 52 47 46 46 46 41 39 39
16 15 16 18 18 16 13 12 12 12 11 11 12 12 11 14 14 12 13 16 20 36 33 29 25 27 26 26 25 27 28 29 31 31 31 31 33 35 38 40 40 40 41
18 16 15 15 15 15 14 13 12 11 10 10 10 10 11 12 13 13 13 14 16 20 21 22 23 23 25 25 26 28 29 31 32 34 37 40 41 42 43 45 48 49 49
Wind_Direction
256 257 262 264 266 268 270 265 263 257 255 254 254 252 247 243 246 247 248 247 248 250 253 253 253 260 267 274 278 280 279 278 276 278 285 287 287 285 286 287 290 295 301
263 269 271 271 272 271 271 274 276 281 263 249 250 251 252 250 247 249 252 254 252 252 254 258 261 262 263 266 271 273 275 274 273 270 279 285 288 288 287 289 292 297 299
276 272 269 268 262 260 266 268 269 276 278 270 248 245 249 253 254 250 249 255 258 257 258 259 262 264 267 267 267 270 272 272 272 272 271 280 286 287 289 289 292 296 296
270 269 270 271 270 268 267 266 267 266 267 262 262 262 259 256 256 257 256 250 254 257 258 259 259 262 264 265 266 266 268 271 273 273 274 277 282 286 287 288 291 291 299
272 270 270 272 268 271 271 269 265 265 264 262 258 260 258 255 252 251 256 256 254 254 256 256 255 256 257 258 261 263 264 265 268 271 276 278 281 282 283 286 287 289 291
273 274 275 271 268 266 268 269 268 262 262 260 260 259 257 257 253 253 253 254 250 250 255 254 257 255 255 256 258 260 264 265 269 271 273 275 276 276 278 281 283 281 283
278 279 279 278 277 273 269 267 265 264 263 262 259 256 257 256 257 254 256 256 261 257 248 252 259 254 253 256 254 257 262 267 268 270 272 270 267 269 271 275 277 276 277
281 280 280 278 276 275 274 272 269 266 263 262 259 258 254 255 256 257 257 260 263 264 268 256 248 260 260 256 260 261 263 267 271 271 269 270 272 270 273 274 274 275 276
278 278 278 277 277 275 273 272 271 269 266 264 259 257 259 255 255 255 258 261 263 267 271 273 279 272 280 277 265 280 264 265 269 270 270 269 269 271 274 276 280 277 273
276 276 275 274 273 272 272 271 268 267 266 264 260 258 255 256 254 254 254 258 262 266 271 274 275 281 279 278 282 282 287 279 276 269 267 271 270 269 271 272 274 272 274
279 278 276 274 274 274 270 267 267 265 263 262 261 258 256 254 250 250 252 255 259 263 266 271 276 278 279 279 283 284 274 270 273 283 276 272 274 272 277 288 268 263 271
276 275 273 273 274 273 271 269 267 263 261 258 257 256 255 254 251 246 246 250 255 259 263 267 270 273 274 275 279 280 276 274 269 270 270 274 272 273 283 288 272 262 258
282 284 281 280 284 280 276 273 269 262 258 258 255 252 249 248 250 247 240 242 248 255 258 260 267 269 273 272 273 275 278 279 275 259 251 248 251 250 255 259 267 260 263
287 283 288 286 291 285 278 274 270 262 254 251 251 253 248 246 244 243 239 238 243 249 255 258 260 264 264 268 270 263 269 269 263 257 256 253 252 258 259 245 245 257 261
289 286 287 289 303 297 289 276 269 258 252 244 247 249 246 238 239 236 235 235 239 245 249 252 255 256 258 261 263 261 264 262 259 260 261 263 261 252 249 260 263 250 246
294 286 298 304 307 304 295 281 267 254 246 241 240 241 239 237 230 228 230 232 236 241 244 246 251 253 254 253 253 257 258 258 260 263 265 265 266 268 267 265 256 253 259
320 309 317 304 322 324 316 297 277 258 246 236 231 235 237 233 219 220 224 227 233 236 237 239 244 248 249 249 247 246 262 266 268 267 266 266 267 268 266 267 266 263 263
334 318 324 326 326 344 336 333 287 248 232 222 223 229 229 216 212 218 223 227 232 237 239 239 241 242 243 250 252 253 253 261 269 273 270 266 265 268 269 267 263 260 257
342 318 320 325 303 359 352 330 323 241 219 224 223 215 208 207 211 216 222 226 231 234 235 237 241 244 247 249 255 257 263 268 268 268 269 269 267 268 266 269 266 265 258
326 328 325 326 329 327 352 331 301 269 205 201 190 200 205 211 209 216 226 231 234 239 241 243 246 248 251 256 260 262 264 267 267 266 265 268 268 264 263 260 262 260 261
360 2 327 302 320 338 313 333 311 224 192 165 174 200 157 193 194 210 219 229 236 239 240 243 246 251 255 257 261 266 268 269 265 262 264 262 260 258 254 249 254 256 248
358 6 23 14 21 55 14 63 132 146 101 168 178 225 226 240 237 243 236 240 248 255 251 250 250 256 259 265 271 268 264 264 263 262 258 260 267 267 259 256 256 257 252
351 352 6 14 17 22 38 72 33 141 187 172 212 232 235 239 256 250 237 249 250 212 243 256 272 262 249 260 268 244 252 267 268 263 257 253 261 266 265 262 259 261 258
356 352 354 3 11 11 10 16 32 18 21 14 302 249 243 249 241 219 228 232 244 246 253 232 231 247 243 245 244 248 258 257 257 257 259 259 259 259 259 258 262 266 267
22 27 32 21 15 11 3 358 353 358 358 348 339 333 330 314 313 286 281 263 256 242 248 268 274 268 272 280 278 283 286 285 282 280 283 277 272 271 270 270 268 265 264
6 13 13 14 12 8 6 6 5 360 350 342 341 335 328 322 316 312 301 289 278 276 279 282 285 286 286 286 286 285 281 280 277 275 273 274 273 272 271 269 270 269 267